Weather History for Abingdon, VA

Change the Weather History Date:

Wednesday, January 30, 2013

  Actual Average (KTRI) Record (KTRI)
Temperature  
Mean Temperature 56 °F 36 °F  
Max Temperature 67 °F 46 °F 72 °F (2002)
Min Temperature 45 °F 26 °F -9 °F (1966)
Degree Days  
Heating Degree Days 9 29  
Month to date heating degree days 896  
Since 1 July heating degree days 2625  
Cooling Degree Days 0 0  
Month to date cooling degree days 0  
Year to date cooling degree days 0  
Growing Degree Days 6 (Base 50)    
Moisture  
Dew Point 55 °F    
Average Humidity 88    
Maximum Humidity 100    
Minimum Humidity 67    
Precipitation  
Precipitation 2.09 in 0.11 in 2.34 in (1950)
Month to date precipitation 3.25  
Year to date precipitation 3.25  
Snow  
Snow 0.00 in 0.10 in - ()
Month to date snowfall 4.5  
Since 1 July snowfall 7.2  
Snow Depth -    
Sea Level Pressure  
Sea Level Pressure 29.67 in    
Wind  
Wind Speed 8 mph (SW)    
Max Wind Speed 21 mph    
Max Gust Speed 32 mph    
Visibility 8 miles    
Events Rain , Thunderstorm    
T = Trace of Precipitation, MM = Missing Value Source: NWS Daily Summary

Daily Weather History Graph

Daily Weather History Graph

Search for Another Location

Airport:

Trip Planner

Search our weather history database for the weather conditions in past years. The results will help you decide how hot, cold, wet, or windy it might be!

Date:

Astronomy

Jan. 30, 2013 Rise Set
Actual Time 7:31 AM EST 5:51 PM EST
Civil Twilight 7:04 AM EST 6:19 PM EST
Nautical Twilight 6:33 AM EST 6:50 PM EST
Astronomical Twilight 6:02 AM EST 7:20 PM EST
Moon 9:41 PM EST (1/30) 9:05 AM EST (1/30)
Length of Visible Light 11h 15m
Length of Day
10h 20m
Waning Gibbous, 88% of the Moon is Illuminated
Jan 30
Waning Gibbous
Feb 3
Last Quarter
Feb 10
New
Feb 17
First Quarter
Feb 25
Full

Hourly Weather History & Observations

Time (EST) Temp. Windchill Dew Point Humidity Pressure Visibility Wind Dir Wind Speed Gust Speed Precip Events Conditions
12:15 AM 60.3 °F - 54.3 °F 81% 29.95 in 10.0 mi SW 4.6 mph - N/A   Mostly Cloudy
12:35 AM 64.0 °F - 55.6 °F 74% 29.94 in 10.0 mi SSW 6.9 mph - N/A   Overcast
12:55 AM 64.6 °F - 55.9 °F 74% 29.92 in 10.0 mi South 4.6 mph - N/A   Overcast
1:15 AM 64.2 °F - 56.1 °F 75% 29.91 in 10.0 mi SSW 9.2 mph - N/A   Overcast
1:35 AM 64.6 °F - 57.2 °F 77% 29.90 in 10.0 mi SW 5.8 mph - N/A   Overcast
1:55 AM 64.8 °F - 57.7 °F 78% 29.88 in 10.0 mi SSW 5.8 mph - N/A   Overcast
2:15 AM 63.9 °F - 57.6 °F 80% 29.88 in 10.0 mi SW 8.1 mph - N/A   Scattered Clouds
2:35 AM 64.4 °F - 58.1 °F 80% 29.88 in 10.0 mi SW 6.9 mph - N/A   Mostly Cloudy
2:55 AM 64.8 °F - 58.1 °F 79% 29.85 in 10.0 mi SSW 9.2 mph - N/A   Overcast
3:15 AM 64.8 °F - 57.7 °F 78% 29.85 in 10.0 mi SSW 9.2 mph - N/A   Scattered Clouds
3:35 AM 64.9 °F - 57.4 °F 76% 29.84 in 10.0 mi SSW 9.2 mph - N/A   Scattered Clouds
3:55 AM 64.4 °F - 57.2 °F 77% 29.83 in 10.0 mi SSW 5.8 mph - N/A   Scattered Clouds
4:15 AM 64.8 °F - 57.0 °F 76% 29.82 in 10.0 mi SSW 4.6 mph - N/A   Mostly Cloudy
4:35 AM 64.4 °F - 56.8 °F 76% 29.81 in 10.0 mi South 3.5 mph - N/A   Mostly Cloudy
4:55 AM 63.0 °F - 56.1 °F 78% 29.80 in 10.0 mi SSW 4.6 mph - N/A   Scattered Clouds
5:15 AM 65.1 °F - 55.6 °F 71% 29.78 in 10.0 mi SSW 9.2 mph - N/A   Scattered Clouds
5:35 AM 65.7 °F - 55.6 °F 70% 29.77 in 10.0 mi SSW 6.9 mph - N/A   Mostly Cloudy
6:15 AM 67.5 °F - 56.3 °F 67% 29.76 in 10.0 mi WSW 15.0 mph 27.6 mph N/A   Overcast
6:35 AM 67.3 °F - 55.9 °F 67% 29.75 in 10.0 mi SW 16.1 mph 19.6 mph N/A   Overcast
6:55 AM 67.1 °F - 55.9 °F 67% 29.75 in 10.0 mi SW 11.5 mph 16.1 mph N/A   Overcast
7:15 AM 66.7 °F - 56.3 °F 69% 29.73 in 10.0 mi SSW 13.8 mph 17.3 mph N/A   Mostly Cloudy
7:35 AM 66.6 °F - 56.3 °F 69% 29.71 in 10.0 mi SSW 11.5 mph 19.6 mph N/A   Scattered Clouds
7:55 AM 67.3 °F - 56.8 °F 69% 29.72 in 10.0 mi SW 16.1 mph 23.0 mph N/A   Mostly Cloudy
8:15 AM 66.7 °F - 58.1 °F 74% 29.72 in 10.0 mi SW 20.7 mph 26.5 mph N/A Rain Rain
8:35 AM 63.7 °F - 60.1 °F 88% 29.72 in 7.0 mi SSW 6.9 mph - 0.03 in Rain Light Rain
9:15 AM 65.3 °F - 59.9 °F 83% 29.72 in 10.0 mi SW 9.2 mph - N/A   Overcast
9:35 AM 65.5 °F - 59.9 °F 82% 29.71 in 10.0 mi SW 13.8 mph 21.9 mph N/A Rain Light Rain
9:55 AM 65.8 °F - 59.9 °F 81% 29.71 in 10.0 mi SW 9.2 mph - N/A Rain Light Rain
10:15 AM 66.2 °F - 59.5 °F 79% 29.70 in 10.0 mi SSW 10.4 mph - 0.01 in Rain Light Rain
10:35 AM 65.5 °F - 60.3 °F 83% 29.70 in 10.0 mi SSW 8.1 mph - 0.02 in Rain Light Rain
10:55 AM 65.1 °F - 60.8 °F 86% 29.68 in 10.0 mi Calm Calm - 0.02 in Rain Light Rain
11:15 AM 65.8 °F - 60.6 °F 83% 29.66 in 10.0 mi SSW 6.9 mph - N/A   Overcast
11:35 AM 65.8 °F - 60.8 °F 84% 29.66 in 7.0 mi SSW 11.5 mph - 0.02 in Rain Rain
11:55 AM 64.9 °F - 61.2 °F 88% 29.66 in 7.0 mi West 8.1 mph - 0.06 in Rain Rain
12:15 PM 60.4 °F - 59.4 °F 96% 29.68 in 5.0 mi NNW 12.7 mph 21.9 mph 0.09 in Rain Light Rain
12:35 PM 58.5 °F - 58.1 °F 99% 29.67 in 4.0 mi NNW 16.1 mph 23.0 mph 0.16 in Rain Heavy Rain
12:55 PM 58.1 °F - 57.7 °F 99% 29.66 in 5.0 mi West 3.5 mph - 0.24 in Rain Rain
1:15 PM 57.4 °F - 57.4 °F 100% 29.66 in 4.0 mi SSW 8.1 mph - 0.07 in Rain Rain
1:35 PM 57.2 °F - 57.2 °F 100% 29.66 in 4.0 mi SW 5.8 mph - 0.16 in Rain Rain
1:55 PM 57.2 °F - 57.2 °F 100% 29.62 in 3.0 mi SSW 5.8 mph - 0.24 in Rain Rain
2:15 PM 57.2 °F - 57.2 °F 100% 29.60 in 2.5 mi SSW 4.6 mph - 0.07 in Rain Rain
2:35 PM 56.8 °F - 56.8 °F 100% 29.61 in 2.0 mi SW 6.9 mph - 0.21 in Rain Heavy Rain
2:55 PM 56.7 °F - 56.7 °F 100% 29.63 in 3.0 mi SW 6.9 mph - 0.33 in Rain Rain
3:15 PM 56.5 °F - 56.5 °F 100% 29.61 in 2.5 mi SW 4.6 mph - 0.09 in Rain , Thunderstorm Heavy Thunderstorms and Rain
3:35 PM 56.5 °F - 56.5 °F 100% 29.59 in 3.0 mi SSW 6.9 mph - 0.19 in Rain Rain
3:55 PM 56.3 °F - 56.3 °F 100% 29.59 in 10.0 mi SW 6.9 mph - 0.24 in Rain Light Rain
4:15 PM 56.3 °F - 56.3 °F 100% 29.57 in 4.0 mi SSW 5.8 mph - 0.07 in Rain Rain
4:35 PM 56.5 °F - 56.5 °F 100% 29.56 in 4.0 mi SSW 9.2 mph - 0.17 in Rain Rain
4:55 PM 56.3 °F - 56.3 °F 100% 29.54 in 5.0 mi SSW 5.8 mph - 0.25 in Rain Rain
5:15 PM 56.3 °F - 56.3 °F 100% 29.53 in 5.0 mi SW 4.6 mph - 0.04 in Rain Rain
5:35 PM 56.3 °F - 56.3 °F 100% 29.51 in 4.0 mi SW 3.5 mph - 0.10 in Rain Rain
5:55 PM 56.3 °F - 56.3 °F 100% 29.51 in 5.0 mi West 4.6 mph - 0.17 in Rain Rain
6:15 PM 56.3 °F - 56.3 °F 100% 29.48 in 10.0 mi West 10.4 mph - 0.04 in Rain Light Rain
6:35 PM 56.3 °F - 56.3 °F 100% 29.48 in 5.0 mi West 11.5 mph 17.3 mph 0.07 in Rain Rain
6:55 PM 56.3 °F - 56.3 °F 100% 29.50 in 4.0 mi West 15.0 mph 23.0 mph 0.12 in Rain Rain
7:15 PM 52.7 °F - 51.1 °F 94% 29.53 in 5.0 mi West 16.1 mph 31.1 mph 0.07 in Rain Rain
7:35 PM 50.9 °F - 50.2 °F 97% 29.54 in 7.0 mi West 17.3 mph 32.2 mph 0.12 in Rain Rain
7:55 PM 49.8 °F - 49.8 °F 100% 29.56 in 7.0 mi WSW 12.7 mph 23.0 mph 0.16 in Rain Rain
8:15 PM 48.4 °F - 48.4 °F 100% 29.55 in 7.0 mi WSW 13.8 mph 18.4 mph 0.05 in Rain Rain
8:35 PM 47.1 °F - 47.1 °F 100% 29.56 in 7.0 mi West 10.4 mph 20.7 mph 0.08 in Rain Rain
8:55 PM 46.8 °F - 46.8 °F 100% 29.53 in 7.0 mi WSW 9.2 mph - 0.15 in Rain Rain
9:15 PM 46.6 °F - 46.6 °F 100% 29.53 in 7.0 mi WSW 11.5 mph - 0.03 in Rain Light Rain
9:35 PM 46.4 °F 42.4 °F 46.4 °F 100% 29.53 in 7.0 mi WSW 8.1 mph - 0.05 in Rain Rain
9:55 PM 46.0 °F 39.9 °F 46.0 °F 100% 29.55 in 10.0 mi WSW 13.8 mph 18.4 mph 0.06 in Rain Light Rain
10:15 PM 46.0 °F 41.0 °F 45.9 °F 99% 29.50 in 10.0 mi WSW 10.4 mph 16.1 mph 0.01 in Rain Light Rain
10:35 PM 45.9 °F 40.8 °F 45.7 °F 99% 29.48 in 10.0 mi West 10.4 mph - 0.01 in   Light Drizzle
10:55 PM 45.7 °F 40.6 °F 45.5 °F 99% 29.49 in 10.0 mi West 10.4 mph - 0.02 in Rain Light Rain
11:15 PM 45.7 °F 40.6 °F 45.0 °F 97% 29.49 in 10.0 mi West 10.4 mph - N/A   Overcast
11:35 PM 45.9 °F 40.0 °F 43.9 °F 93% 29.49 in 10.0 mi West 12.7 mph - N/A Rain Rain
11:55 PM 45.9 °F 40.8 °F 43.3 °F 91% 29.49 in 10.0 mi West 10.4 mph 16.1 mph N/A   Light Drizzle